User: anonymous   Login
Location: Unspecified
(37.3333°N, 0.0000°E)
Time: 02:38:10
(UTC+00:00)
Language:

Tiangong 2 - Orbit

View from above orbital plane
View from above orbital plane
View from above satellite
View from above satellite

Ground track
Ground track

The orbit data is extracted from the following two-line orbital elements,

1 41765U 16057A   19176.57376946  .00002110  00000-0  28081-4 0  9990
2 41765  42.7825 276.7397 0008838 316.3620 180.6460 15.61784906158356
Epoch (UTC): 25 June 2019 13:46:13
Eccentricity: 0.0008838
inclination: 42.7825°
perigee height: 376 km
apogee height: 388 km
right ascension of ascending node: 276.7397°
argument of perigee: 316.3620°
revolutions per day: 15.61784906
mean anomaly at epoch: 180.6460°
orbit number at epoch: 15835

The dashed part of the orbit path shows where the satellite is in the earth's shadow,  

DLR